Location: *
(28.3744°N, 81.5492°W)
Time: 03:44:58
(UTC+00:00)

Cosmos 2237 Rocket - Pass Details

Date: 15 June 2025
Orbit: 833 x 850 km, 71.0° (Epoch: 11 July)

Event Time Altitude Azimuth Distance (km) Brightness Sun altitude
Rises 03:28:48 0° 330° (NNW) 3,406 6.5 -31.0°
Reaches altitude 10° 03:31:24 10° 322° (NW) 2,470 5.5 -31.3°
Enters shadow 03:36:09 36° 266° (W) 1,304 3.3 -31.8°
